Simultaneous Nadir Overpasses (SNOs) Predictions

Prediction of SNOs between AURA and NPP Satellite Orbit:

Table of predicted SNOs for the next 14.0 days since TLE Epoch: 5/1/2020
Index Date (AURA) Time (AURA) Lat,Lon (AURA) SZA (AURA ) Date (NPP) Time (NPP) Lat,Lon (NPP) SZA (NPP ) Distance(km) Time Diff (sec)
1 05/03/2020 11:25:08 -79.45, 85.19 103.30 05/03/2020 11:24:21 -79.46, 85.29 103.29 1.96 47
2 05/03/2020 12:14:30 79.60,-106.14 76.48 05/03/2020 12:15:01 79.60,-106.23 76.47 1.83 31
3 05/06/2020 03:41:38 -79.43,-159.08 104.03 05/06/2020 03:41:17 -79.42,-159.21 103.99 2.79 21
4 05/06/2020 04:30:56 79.72, 10.64 75.53 05/06/2020 04:31:52 79.72, 10.65 75.49 0.17 56
5 05/08/2020 19:08:43 79.32, 148.40 75.43 05/08/2020 19:07:29 79.33, 148.51 75.46 2.61 74
6 05/08/2020 19:58:04 -79.56, -42.32 104.94 05/08/2020 19:58:08 -79.55, -42.38 104.93 1.30 4
7 05/11/2020 11:25:11 79.37, -95.40 74.67 05/11/2020 11:24:23 79.36, -95.50 74.73 2.39 48
8 05/11/2020 12:14:30 -79.65, 74.18 105.76 05/11/2020 12:14:59 -79.65, 74.19 105.78 0.20 29
9 05/14/2020 03:41:37 79.45, 21.06 73.89 05/14/2020 03:41:14 79.45, 21.01 73.92 1.05 23




NCC Satellite Simultaneous Nadir Overpasses (SNOs) Prediction Service
